1380067232315,56.0767
1380067292315,56.0962
1380067352315,55.9561
1380067412315,56.0597
1380067472315,56.1330
1380067532315,56.0129
1380067592315,56.3058
1380067652315,55.9971
1380067712315,56.1224
1380067772315,56.2194
1380067832315,56.2090
1380067892315,55.9768
1380067952315,56.0641
1380068012315,56.1928
1380068072315,56.1851
1380068132315,56.2295
1380068192315,56.3136
1380068252315,56.1445
1380068312315,56.1054
1380068372315,56.2315
1380068432315,56.2059
1380068492315,56.0125
1380068552315,56.1629
1380068612315,56.1235
1380068672315,56.0126
1380068732315,56.2421
1380068792315,56.0048
1380068852315,56.1458
1380068912315,55.9915
1380068972315,56.0366
1380069032315,55.9588
1380069092315,56.1326
1380069152315,56.1235
1380069212315,55.9108
1380069272315,56.1112
1380069332315,55.9833
1380069392315,56.1357
1380069452315,55.8973
1380069512315,56.1490
1380069572315,56.1861
1380069632315,56.0094
1380069692315,55.9604
1380069752315,56.0657
1380069812315,55.9617
1380069872315,56.0940
1380069932315,56.0920
1380069992315,56.2331
1380070052315,55.9850
1380070112315,56.0772
1380070172315,56.0946
1380070232315,56.0532
1380070292315,56.0644
1380070352315,56.0652
1380070412315,55.9519
1380070472315,56.1444
1380070532315,56.0802
1380070592315,56.1346
1380070652315,56.1490
1380070712315,56.0291
1380070772315,56.1671
1380070832327,56.0985
1380070892327,56.2040
1380070952327,56.0877
1380071012327,55.8984
1380071072327,56.0119
1380071132327,56.0606
1380071192327,55.9669
1380071252327,56.0067
1380071312327,55.8493
1380071372327,56.0641
1380071432327,55.9912
1380071492327,56.0951
1380071552327,56.0917
1380071612327,55.9424
1380071672327,56.0174
1380071732327,55.9971
1380071792327,55.9937
1380071852327,56.0665
1380071912327,55.9698
1380071972327,56.0357
1380072032327,56.0420
1380072092327,56.1499
1380072152327,56.2056
1380072212327,55.8708
1380072272327,56.1316
1380072332327,56.0661
1380072392327,56.1491
1380072452327,56.1665
1380072512327,56.1228
1380072572327,56.1080
1380072632327,56.1720
1380072692327,56.0986
1380072752327,56.0197
1380072812327,56.1415
1380072872327,56.1352
1380072932327,56.0992
1380072992327,56.1144
1380073052327,56.1597
1380073112327,56.2083
1380073172327,56.2091
1380073232327,56.1589
1380073292327,55.9697
1380073352327,56.0809
1380073412327,56.1428
1380073472327,56.0531
1380073532327,56.0689
1380073592327,56.1677
1380073652327,56.1075
1380073712327,55.9444
1380073772327,56.1037
1380073832327,56.0912
1380073892327,55.9274
1380073952327,56.0573
1380074012327,56.0428
1380074072327,56.0472
1380074132327,56.1473
1380074192327,55.9996
1380074252327,56.1728
1380074312327,56.0987
1380074372327,56.0099
1380074432338,56.0995
1380074492338,56.1365
1380074552338,56.0768
1380074612338,55.9515
1380074672338,55.9789
1380074732338,55.9288
1380074792338,55.9405
1380074852338,55.9254
1380074912338,55.8115
1380074972338,56.1402
1380075032338,56.0254
1380075092338,55.9841
1380075152338,55.9979
1380075212338,56.0721
1380075272338,56.0065
1380075332338,56.0054
1380075392338,55.7919
1380075452338,55.9562
1380075512338,56.0720
1380075572338,55.8534
1380075632338,56.0915
1380075692338,55.9803
1380075752338,56.0522
1380075812338,55.9395
1380075872338,55.9017
1380075932338,56.0956
1380075992338,55.7045
1380076052338,55.8474
1380076112338,56.0591
1380076172338,55.7182
1380076232338,56.1173
1380076292338,55.8123
1380076352338,55.8072
1380076412338,55.8566
1380076472338,55.9422
1380076532338,55.8993
1380076592338,55.7710
1380076652338,55.9792
1380076712338,56.0018
1380076772338,55.8216
1380076832338,56.0298
1380076892338,55.8098
1380076952338,55.9965
1380077012338,56.0677
1380077072338,56.0652
1380077132338,55.6982
1380077192338,55.7760
1380077252338,55.9299
1380077312338,55.8598
1380077372338,55.9676
1380077432338,55.9754
1380077492338,55.8805
1380077552338,55.9664
1380077612338,55.8755
1380077672338,56.0431
1380077732338,55.8425
1380077792338,55.8662
1380077852338,55.8964
1380077912338,55.9537
1380077972338,55.8773
1380078032349,55.8159
1380078092349,55.8306
1380078152349,55.9319
1380078212349,55.7797
1380078272349,55.9538
1380078332349,55.9846
1380078392349,55.7363
1380078452349,55.8797
1380078512349,55.9202
1380078572349,55.6510
1380078632349,55.8193
1380078692349,55.7863
1380078752349,55.8564
1380078812349,56.0333
1380078872349,55.8157
1380078932349,55.8551
1380078992349,55.8796
1380079052349,55.8986
1380079112349,55.8625
1380079172349,55.7800
1380079232349,55.8905
1380079292349,55.8918
1380079352349,55.7639
1380079412349,55.7773
1380079472349,55.7500
1380079532349,55.8967
1380079592349,55.8037
1380079652349,55.7292
1380079712349,55.6634
1380079772349,55.7946
1380079832349,55.6529
1380079892349,55.6219
1380079952349,55.6192
1380080012349,55.6520
1380080072349,55.6885
1380080132349,55.7187
1380080192349,55.7059
1380080252349,55.5324
1380080312349,55.4711
1380080372349,55.5357
1380080432349,55.6912
1380080492349,55.7396
1380080552349,55.5158
1380080612349,55.6016
1380080672349,55.3447
1380080732349,55.5543
1380080792349,55.6365
1380080852349,55.6208
1380080912349,55.4726
1380080972349,55.5287
1380081032349,55.5458
1380081092349,55.6533
1380081152349,55.5644
1380081212349,55.5092
1380081272349,55.4250
1380081332349,55.4545
1380081392349,55.5010
1380081452349,55.3791
1380081512349,55.5864
1380081572349,55.5774
1380081632359,55.5485
1380081692359,55.4910
1380081752359,55.4443
1380081812359,55.4599
1380081872360,55.4819
1380081932360,55.4060
1380081992359,55.3637
1380082052359,55.5673
1380082112359,55.3677
1380082172359,55.4025
1380082232359,55.4169
1380082292359,55.5994
1380082352359,55.5347
1380082412359,55.4613
1380082472359,55.5018
1380082532359,55.4622
1380082592359,55.5383
1380082652359,55.5583
1380082712359,55.5305
1380082772359,55.6393
1380082832359,55.6322
1380082892359,55.6548
1380082952359,55.5274
1380083012359,55.6273
1380083072359,55.6298
1380083132359,55.6801
1380083192359,55.5620
1380083252360,55.6862
1380083312360,55.6119
1380083372359,55.6259
1380083432359,55.8060
1380083492359,55.5616
1380083552359,55.6511
1380083612359,55.6305
1380083672359,55.6617
1380083732359,55.6549
1380083792359,55.5488
1380083852359,55.8609
1380083912359,55.5855
1380083972359,55.6022
1380084032359,55.6925
1380084092359,55.8876
1380084152359,55.6756
1380084212359,55.7106
1380084272359,55.4808
1380084332359,55.7324
1380084392359,55.6838
1380084452359,55.7319
1380084512359,55.5526
1380084572360,55.6566
1380084632360,55.9134
1380084692359,55.5629
1380084752359,55.6511
1380084812359,55.7029
1380084872359,55.5858
1380084932359,55.5253
1380084992359,55.6342
1380085052359,55.6277
1380085112359,55.6405
1380085172359,55.5674
1380085232370,55.4415
1380085292370,55.6320
1380085352370,55.6734
1380085412370,55.7121
1380085472370,55.5998
1380085532370,55.6122
1380085592370,55.5051
1380085652370,55.5032
1380085712370,55.6950
1380085772370,55.5407
1380085832370,55.6755
1380085892370,55.5576
1380085952370,55.5149
1380086012370,55.5819
1380086072370,55.6255
1380086132370,55.5594
1380086192370,55.5916
1380086252370,55.4963
1380086312370,55.4392
1380086372370,55.7862
1380086432370,55.8278
1380086492370,55.4471
1380086552370,55.6342
1380086612370,55.6314
1380086672370,55.6196
1380086732370,55.6520
1380086792370,55.4461
1380086852370,55.4816
1380086912370,55.5948
1380086972370,55.5138
1380087032370,55.5662
1380087092370,55.4658
1380087152370,55.4766
1380087212370,55.5895
1380087272370,55.4138
1380087332370,55.7200
1380087392370,55.5775
1380087452370,55.6278
1380087512370,55.6496
1380087572370,55.3573
1380087632370,55.7779
1380087692370,55.6210
1380087752370,55.5464
1380087812370,55.5350
1380087872370,55.5828
1380087932370,55.6337
1380087992370,55.4913
1380088052370,55.7074
1380088112370,55.4763
1380088172370,55.4851
1380088232370,55.4489
1380088292370,55.5569
1380088352370,55.5608
1380088412370,55.5405
1380088472370,55.5300
1380088532370,55.5546
1380088592370,55.3368
1380088652370,55.4755
1380088712370,55.5509
1380088772370,55.5415
1380088832381,55.6630
1380088892381,55.4558
1380088952381,55.4718
1380089012381,55.5989
1380089072381,55.5360
1380089132381,55.6567
1380089192381,55.4913
1380089252381,55.6944
1380089312381,55.5416
1380089372381,55.5385
1380089432381,55.3405
1380089492381,55.7236
1380089552381,56.2746
1380089612381,55.4079
1380089672381,54.8685
1380089732381,54.7553
1380091652381,54.9452
1380091712381,55.0695
1380091772381,55.2335
1380091832381,55.0759
1380091892381,55.2456
1380091952381,55.2327
1380092012381,55.2443
1380092072381,55.2141
1380092132381,55.2697
1380092192381,55.3700
1380092252381,55.4001
1380092312381,55.4836
1380092372381,55.0614
1380092432392,55.2503
1380092492392,55.4338
1380092552392,55.2679
1380092612392,55.2939
1380092672392,55.1756
1380092732392,55.1819
1380092792392,55.1826
1380092852392,55.3822
1380092912392,55.2195
1380092972392,55.3477
1380093032392,55.2843
1380093092392,55.1311
1380093152392,55.5150
1380093212392,55.2122
1380093272392,55.4035
1380093332392,55.1113
1380093392392,55.2366
1380093452392,55.4925
1380093512392,55.2132
1380093572392,55.4045
1380093632392,55.2434
1380093692392,55.1843
1380093752392,55.3497
1380093812392,55.1670
1380093872392,55.0839
1380093932392,55.2787
1380093992392,55.4423
1380094052392,55.2575
1380094112392,55.4368
1380094172392,55.3589
1380094232392,55.2183
1380094292392,55.3322
1380094352392,55.2084
1380094412392,55.3483
1380094472392,55.1774
1380094532392,55.2653
1380094592392,55.2377
1380094652392,55.0897
1380094712392,55.2528
1380094772392,55.2902
1380094832392,55.2972
1380094892392,55.2977
1380094952392,55.2971
1380095012392,55.3030
1380095072392,55.3602
1380095132392,55.4807
1380095192392,55.3866
1380095252392,55.2040
1380095312392,55.2178
1380095372392,55.3354
1380095432392,55.3167
1380095492392,55.3609
1380095552392,55.2858
1380095612392,55.3125
1380095672392,55.3002
1380095732392,55.3613
1380095792392,55.2839
1380095852392,55.3967
1380095912392,55.2504
1380095972392,55.3490
1380096032403,55.4466
1380096092403,55.2126
1380096152403,55.3455
1380096212403,55.2573
1380096272403,55.1874
1380096332403,55.3463
1380096392403,55.3135
1380096452403,55.1715
1380096512403,55.2703
1380096572403,55.2572
1380096632403,55.3656
1380096692403,55.2583
1380096752403,55.2829
1380096812403,55.3312
1380096872403,55.3328
1380096932403,55.1879
1380096992403,55.2540
1380097052403,55.2111
1380097112403,55.2553
1380097172403,55.3095
1380097232403,55.3552
1380097292403,55.3273
1380097352403,55.2333
1380097412403,55.2854
1380097472403,55.3454
1380097532403,55.3440
1380097592403,55.4212
1380097652403,55.3592
1380097712403,55.2673
1380097772403,55.2418
1380097832403,55.1884
1380097892403,55.5245
1380097952403,55.3053
1380098012403,55.4029
1380098072403,55.4511
1380098132403,55.3734
1380098192403,55.3128
1380098252403,55.0989
1380098312403,55.1838
1380098372403,55.2907
1380098432403,55.1912
1380098492403,55.2872
1380098552403,55.3329
1380098612403,55.2468
1380098672403,55.2301
1380098732403,55.4262
1380098792403,55.1013
1380098852403,55.4012
1380098912403,55.3175
1380098972403,55.2775
1380099032403,55.1902
1380099092403,55.3436
1380099152403,55.1517
1380099212403,55.1622
1380099272403,55.2681
1380099332403,55.4103
1380099392403,55.3578
1380099452403,55.3608
1380099512403,55.3574
1380099572403,55.3805
1380099632414,55.4524
1380099692414,55.3459
1380099752414,55.2327
1380099812414,55.2385
1380099872414,55.3225
1380099932414,55.3649
1380099992414,55.3233
1380100052414,55.2017
1380100112414,55.3981
1380100172414,55.3502
1380100232414,55.4066
1380100292414,55.4997
1380100352414,55.3562
1380100412414,55.4161
1380100472414,55.5825
1380100532414,55.4099
1380100592414,55.4705
1380100652414,55.5049
1380100712414,55.5795
1380100772414,55.3448
1380100832414,55.4606
1380100892414,55.2796
1380100952414,55.4077
1380101012414,55.5502
1380101072414,55.5626
1380101132414,55.3516
1380101192414,55.3346
1380101252414,55.4523
1380101312414,55.5947
1380101372414,55.3387
1380101432414,55.4281
1380101492414,55.4417
1380101552414,55.4083
1380101612414,55.4784
1380101672414,55.2859
1380101732414,55.4219
1380101792414,55.5410
1380101852414,55.4523
1380101912414,55.2975
1380101972414,55.5541
1380102032414,55.5629
1380102092414,55.5134
1380102152414,55.8216
1380102212414,55.3951
1380102272414,55.4223
1380102332414,55.4576
1380102392414,55.3162
1380102452414,55.4368
1380102512414,55.4608
1380102572414,55.4047
1380102632414,55.5172
1380102692414,55.5187
1380102752414,55.4030
1380102812414,55.4799
1380102872414,55.5747
1380102932414,55.4684
1380102992414,55.6406
1380103052414,55.6300
1380103112414,55.4399
1380103172414,55.5354
1380103232426,55.4839
1380103292426,55.4247
1380103352426,55.3472
1380103412426,55.4074
1380103472426,55.3816
1380103532426,55.4677
1380103592426,55.4727
1380103652426,55.4319
1380103712426,55.6016
1380103772426,55.4990
1380103832426,55.5100
1380103892426,55.5129
1380103952426,55.4897
1380104012426,55.5372
1380104072426,55.5841
1380104132426,55.3244
1380104192426,55.6209
1380104252426,55.5932
1380104312426,55.5769
1380104372426,55.5203
1380104432426,55.6290
1380104492426,55.6463
1380104552426,55.5093
1380104612426,55.6096
1380104672426,55.5698
1380104732426,55.6851
1380104792426,55.6127
1380104852426,55.5895
1380104912426,55.4428
1380104972426,55.5467
1380105032426,55.4233
1380105092426,55.3972
1380105152426,55.6489
1380105212426,55.5641
1380105272426,55.4647
1380105332426,55.2936
1380105392426,55.5970
1380105452426,55.4953
1380105512426,55.6208
1380105572426,55.5490
1380105632426,55.3777
1380105692426,55.4908
1380105752426,55.3153
1380105812426,55.3958
1380105872426,55.4970
1380105932426,55.3971
1380105992426,55.4672
1380106052426,55.5627
1380106112426,55.4541
1380106172426,55.6212
1380106232426,55.4911
1380106292426,55.4060
1380106352426,55.4186
1380106412426,55.4462
1380106472426,55.4038
1380106532426,55.4757
1380106592426,55.3595
1380106652426,55.3827
1380106712426,55.5669
1380106772426,55.4175
1380106832438,55.4942
1380106892438,55.5594
1380106952438,55.3998
1380107012438,55.5328
1380107072438,55.3767
1380107132438,55.4418
1380107192438,55.5837
1380107252438,55.4177
1380107312438,55.2835
1380107372438,55.4547
1380107432438,55.5366
1380107492438,55.5543
1380107552438,55.4854
1380107612438,55.4111
1380107672438,55.4686
1380107732438,55.5697
1380107792438,55.4807
1380107852438,55.3897
1380107912438,55.3966
1380107972438,55.5818
1380108032438,55.4275
1380108092438,55.5728
1380108152438,55.5427
1380108212438,55.4285
1380108272438,55.4602
1380108332438,55.5555
1380108392438,55.5302
1380108452438,55.7031
1380108512438,55.6617
1380108572438,55.5751
1380108632438,55.5648
1380108692438,55.6530
1380108752438,55.5146
1380108812438,55.4008
1380108872438,55.7175
1380108932438,55.6591
1380108992438,55.6609
1380109052438,55.4846
1380109112438,55.5600
1380109172438,55.4800
1380109232438,55.4127
1380109292438,55.5975
1380109352438,55.5476
1380109412438,55.6931
1380109472438,55.5438
1380109532438,55.6572
1380109592438,55.4887
1380109652438,55.5630
1380109712438,55.5433
1380109772438,55.5560
1380109832438,55.5268
1380109892438,55.4548
1380109952438,55.6434
1380110012438,55.4504
1380110072438,55.6257
1380110132438,55.3646
1380110192438,55.6966
1380110252438,55.6635
1380110312438,55.5081
1380110372438,55.5921
1380110432450,55.6452
1380110492450,55.5986
1380110552450,55.5340
1380110612450,55.5762
1380110672450,55.5460
1380110732450,55.6892
1380110792450,55.7212
1380110852450,55.5276
1380110912450,55.4852
1380110972450,55.5908
1380111032450,55.4690
1380111092450,55.7478
1380111152450,55.7556
1380111212450,55.6077
1380111272450,55.5981
1380111332450,55.6636
1380111392450,55.7809
1380111452450,55.5209
1380111512450,55.6082
1380111572450,55.6225
1380111632450,55.3811
1380111692450,55.5164
1380111752450,55.4051
1380111812450,55.5344
1380111872450,55.6767
1380111932450,55.7201
1380111992450,55.5361
1380112052450,55.6528
1380112112450,55.7577
1380112172450,55.5172
1380112232450,55.4845
1380112292450,55.6207
1380112352450,55.5767
1380112412450,55.6456
1380112472450,55.6767
1380112532450,55.6407
1380112592450,55.6087
1380112652450,55.6388
1380112712450,55.6371
1380112772450,55.6248
1380112832450,55.5825
1380112892450,55.6488
1380112952450,55.7326
1380113012450,55.6560
1380113072450,55.5771
1380113132450,55.6179
1380113192450,55.7327
1380113252450,55.7227
1380113312450,55.6217
1380113372450,55.6852
1380113432450,55.6306
1380113492450,55.7117
1380113552450,55.5803
1380113612450,55.6272
1380113672450,55.7054
1380113732450,55.8332
1380113792450,55.7872
1380113852450,55.6873
1380113912450,55.8239
1380113972450,55.6358
1380114032463,55.5644
1380114092463,55.7042
1380114152463,55.7710
1380114212463,55.6840
1380114272463,55.7948
1380114332463,55.6226
1380114392463,55.7236
1380114452463,55.5104
1380114512463,55.6755
1380114572463,55.6724
1380114632463,55.4797
1380114692463,55.5878
1380114752463,55.6319
1380114812463,55.5381
1380114872463,55.7297
1380114932463,55.7417
1380114992463,55.8164
1380115052463,55.7137
1380115112463,55.7271
1380115172463,55.7342
1380115232463,55.9407
1380115292463,55.8131
1380115352463,55.7773
1380115412463,55.7846
1380115472463,55.5951
1380115532463,55.6838
1380115592463,55.5882
1380115652463,55.7557
1380115712463,55.9487
1380115772463,55.8658
1380115832463,55.7527
1380115892463,55.9019
1380115952463,55.8274
1380116012463,55.7467
1380116072463,55.9349
1380116132463,55.9256
1380116192463,55.8976
1380116252463,55.7057
1380116312463,55.6817
1380116372463,55.7661
1380116432463,55.8480
1380116492463,55.7796
1380116552463,55.7810
1380116612463,55.9124
1380116672463,55.9896
1380116732463,55.9008
1380116792463,55.9416
1380116852463,55.9425
1380116912463,55.8332
1380116972463,55.7242
1380117032463,55.7027
1380117092463,55.7230
1380117152463,55.8644
1380117212463,56.0026
1380117272463,55.8117
1380117332463,55.7463
1380117392463,55.8698
1380117452463,55.7993
1380117512463,55.8821
1380117572463,55.9785
1380117632475,55.9301
1380117692475,55.8319
1380117752475,55.8718
1380117812475,55.8680
1380117872475,55.9100
1380117932475,55.9017
1380117992475,55.9917
1380118052475,55.9668
1380118112475,55.8953
1380118172475,55.8894
1380118232475,55.8739
1380118292475,56.0336
1380118352475,55.9149
1380118412475,55.9808
1380118472475,55.8286
1380118532475,55.9916
1380118592475,55.8695
1380118652475,56.0390
1380118712475,56.0473
1380118772475,55.8674
1380118832475,56.0624
1380118892475,55.9657
1380118952475,56.0546
1380119012475,56.0437
1380119072475,55.9081
1380119132475,55.8338
1380119192475,55.8788
1380119252475,55.7576
1380119312475,55.7192
1380119372475,55.8278
1380119432475,55.7731
1380119492475,55.7583
1380119552475,55.8939
1380119612475,55.8026
1380119672475,55.8866
1380119732475,55.8678
1380119792475,55.9364
1380119852475,56.1142
1380119912475,55.9670
1380119972475,55.8567
1380120032475,55.7166
1380120092475,55.9931
1380120152475,55.8775
1380120212475,56.0486
1380120272475,55.9447
1380120332475,55.9591
1380120392475,55.8629
1380120452475,55.9774
1380120512475,55.9273
1380120572475,55.8239
1380120632475,55.9423
1380120692475,55.9925
1380120752475,55.8505
1380120812475,55.9816
1380120872475,56.0374
1380120932475,55.8054
1380120992475,55.9502
1380121052475,55.9684
1380121112475,55.8500
1380121172475,55.8858
1380121712488,55.8226
1380121772488,55.8051
1380121832488,55.8408
1380121892488,55.6834
1380121952488,55.4107
1380122432488,55.7219
1380122492488,55.6230
1380122552488,55.5178
1380122612488,55.6507
1380122672488,55.7073
1380122732488,55.6208
1380122792488,55.7640
1380122852488,55.5264
1380122912488,55.5099
1380122972488,55.5602
1380123032488,55.6143
1380123092488,55.7724
1380123152488,55.5919
1380123212488,55.7510
1380123272488,55.6514
1380123332488,55.6015
1380123392488,55.7131
1380123452488,55.5898
1380123512488,55.9931
1380123572488,55.7544
1380123632488,55.6845
1380123692488,55.5482
1380123752488,55.6191
1380123812488,55.6347
1380123872488,55.5706
1380123932488,55.5142
1380123992488,55.4920
1380124052488,55.5055
1380124112488,55.4874
1380124172488,55.5862
1380124232488,55.5864
1380124292488,55.5954
1380124352488,55.4593
1380124412488,55.5712
1380124472488,55.4426
1380124532488,55.6955
1380124592488,55.7262
1380124652488,55.3926
1380124712488,55.6498
1380124772488,55.5430
1380124832501,55.6426
1380124892501,55.6092
1380124952501,55.5195
1380125012501,55.5846
1380125072501,55.6466
1380125132501,55.6462
1380125192501,55.6587
1380125252501,55.2921
1380125312501,55.4535
1380125372501,55.6863
1380125432501,55.6598
1380125492501,55.6611
1380125552501,55.5011
1380125612501,55.7602
1380125672501,55.5626
1380125732501,55.6836
1380125792501,55.7618
1380125852501,55.7826
1380125912501,55.6841
1380125972501,55.5754
1380126032501,55.4959
1380126092501,55.4967
1380126152501,55.3416
1380126212501,55.6057
1380126272501,55.4695
1380126332501,55.5636
1380126392501,55.6055
1380126452501,55.4868
1380126512501,55.4621
1380126572501,55.6054
1380126632501,55.5893
1380126692501,55.5630
1380126752501,55.5778
1380126812501,55.7375
1380126872501,55.5211
1380126932501,55.6721
1380126992501,55.6477
1380127052501,55.6554
1380127112501,55.5310
1380127172501,55.6497
1380127232501,55.6242
1380127292501,55.8190
1380127352501,55.8823
1380127412501,55.6633
1380127472501,55.7959
1380127532501,55.6112
1380127592501,55.9279
1380127652501,55.5571
1380127712501,55.5804
1380127772501,55.7552
1380127832501,56.1422
1380127892501,55.6960
1380127952501,55.9067
1380128012501,55.7922
1380128072501,55.8084
1380128132501,55.6515
1380128192501,55.8927
1380128252501,55.7031
1380128312501,55.7684
1380128372501,55.7752
1380128432514,55.8286
1380128492514,55.6958
1380128552514,55.7180
1380128612514,55.5691
1380128672514,55.5661
1380128732514,55.9220
1380128792514,55.6012
1380128852514,55.7956
1380128912514,55.7570
1380128972514,55.7665
1380129032514,55.7723
1380129092514,55.6067
1380129632514,55.8715
1380129692514,55.5732
1380129752514,55.7527
1380129812514,55.7457
1380129872514,55.6450
1380129932514,55.7600
1380129992514,55.7036
1380130052514,55.6422
1380130112514,55.7930
1380130172514,55.6807
1380130232514,55.6040
1380130292514,55.5450
1380130352514,55.7946
1380130412514,55.7912
1380130472514,55.7654
1380130532514,55.7987
1380130592514,55.8570
1380130652514,55.8394
1380130712514,55.7081
1380130772514,55.4802
1380130832514,55.7101
1380130892514,55.5817
1380130952514,55.4151
1380131012514,55.5740
1380131072514,55.5762
1380131132514,55.6248
1380131192514,55.6244
1380131252514,55.5282
1380131312514,55.6750
1380131372514,55.6369
1380131432514,55.6980
1380131492514,55.6578
1380131552514,55.7513
1380131612514,55.7199
1380131672514,55.6359
1380131732514,55.8644
1380131792514,55.5483
1380131852514,55.5811
1380131912514,55.6184
1380131972514,55.5125
1380132032527,55.6918
1380132092527,55.6331
1380132152527,55.8016
1380132212527,55.4931
1380132272527,55.5481
1380132332527,55.7866
1380132392527,55.6640
1380132452527,55.5631
1380132512527,55.4836
1380132572527,55.6723
1380132632527,55.2620
1380132692527,55.5232
1380132752527,55.8072
1380132812527,55.5911
1380132872527,55.4496
1380132932527,55.4573
1380132992527,55.4914
1380133052527,55.3927
1380133112527,55.6548
1380133172527,55.5636
1380133232527,55.4594
1380133292527,55.5109
1380133352527,55.5118
1380133412527,55.3349
1380133472527,55.4336
1380133532527,55.5373
1380133592527,55.6160
1380133652527,55.3944
1380133712527,55.4243
1380133772527,55.5183
1380133832527,55.5329
1380133892527,55.3685
1380133952527,55.4162
1380134012527,55.5093
1380134072527,55.3839
1380134132527,55.3905
1380134192527,55.4769
1380134252527,55.4100
1380134312527,55.5542
1380134372527,55.3211
1380134432527,55.4158
1380134492527,55.2638
1380134552527,55.3630
1380134612527,55.3965
1380134672527,55.3840
1380134732527,55.3071
1380134792527,55.3093
1380134852527,55.3840
1380134912527,55.3174
1380134972527,55.2185
1380135032527,55.2875
1380135092527,55.4399
1380135152527,55.2820
1380135212527,55.2706
1380135272527,55.4213
1380135332527,55.3377
1380135392527,55.2518
1380135452527,55.1797
1380135512527,55.2013
1380135572527,55.2634
1380135632540,55.1747
1380135692540,55.3264
1380135752540,55.2232
1380135812540,55.2103